FW9140 Weather Reports


Display with metric or nautical units.
time (UTC)temp
F
wind
direction
speed
MPH
gust
MPH
rain 1hr
in
rain 24hr
in
rain mn
in
humidity
%
barometer
mb
20260505041422 54 277 0.0 1.0 0.00 0.00 0.00 87 1013.3
20260505040919 54 281 1.0 2.0 0.00 0.00 0.00 86 1013.4
20260505040417 54 312 3.0 3.0 0.00 0.00 0.00 86 1013.2
20260505035913 54 329 5.0 6.0 0.00 0.00 0.00 86 1013.1
20260505035409 55 287 1.0 3.0 0.00 0.00 0.00 85 1013.3
20260505034907 55 339 5.0 8.0 0.00 0.00 0.00 85 1013.5
20260505034403 55 312 2.0 5.0 0.00 0.00 0.00 84 1013.2
20260505033900 55 315 4.0 5.0 0.00 0.00 0.00 83 1013.2
20260505033357 55 314 4.0 7.0 0.00 0.00 0.00 83 1013.2
20260505032855 56 307 2.0 3.0 0.00 0.00 0.00 82 1012.9
20260505032351 56 277 2.0 6.0 0.00 0.00 0.00 82 1013.2
20260505031848 56 254 2.0 3.0 0.00 0.00 0.00 81 1013.0
20260505031345 56 282 2.0 5.0 0.00 0.00 0.00 80 1013.0
20260505030842 56 284 1.0 3.0 0.00 0.00 0.00 79 1013.0
20260505030338 57 293 1.0 2.0 0.00 0.00 0.00 78 1013.1
20260505025833 57 295 2.0 5.0 0.00 0.00 0.00 78 1013.2
20260505025331 57 287 3.0 6.0 0.00 0.00 0.00 77 1012.7
20260505024830 58 327 5.0 7.0 0.00 0.00 0.00 76 1012.8
20260505024327 58 272 3.0 3.0 0.00 0.00 0.00 75 1013.0
20260505023824 59 263 3.0 6.0 0.00 0.00 0.00 75 1012.8
20260505023321 59 274 2.0 5.0 0.00 0.00 0.00 74 1012.8
20260505022818 59 267 3.0 6.0 0.00 0.00 0.00 72 1012.8
20260505022315 60 270 2.0 3.0 0.00 0.00 0.00 71 1012.8
20260505021813 60 266 2.0 5.0 0.00 0.00 0.00 70 1013.0
20260505021309 61 293 3.0 3.0 0.00 0.00 0.00 69 1012.8
20260505020805 61 328 1.0 3.0 0.00 0.00 0.00 68 1012.8
20260505020301 61 297 1.0 3.0 0.00 0.00 0.00 68 1012.8
20260505015758 62 67 2.0 3.0 0.00 0.00 0.00 67 1012.9
20260505015255 62 268 3.0 3.0 0.00 0.00 0.00 68 1013.0
20260505014752 62 255 2.0 5.0 0.00 0.00 0.00 68 1013.0
20260505014249 61 261 1.0 5.0 0.00 0.00 0.00 68 1013.0
20260505013745 61 263 1.0 6.0 0.00 0.00 0.00 69 1013.1
20260505013243 61 283 4.0 6.0 0.00 0.00 0.00 69 1013.3
20260505012741 61 292 3.0 7.0 0.00 0.00 0.00 70 1013.2
20260505012238 60 287 2.0 7.0 0.00 0.00 0.00 70 1013.2
20260505011733 61 268 4.0 7.0 0.00 0.00 0.00 70 1013.2
20260505011231 61 143 3.0 8.0 0.00 0.00 0.00 69 1013.2
20260505010726 61 239 5.0 7.0 0.00 0.00 0.00 69 1013.1
20260505010223 62 269 5.0 8.0 0.00 0.00 0.00 68 1013.0
20260505005719 62 250 3.0 8.0 0.00 0.00 0.00 66 1013.1
20260505005217 63 257 4.0 8.0 0.00 0.00 0.00 65 1012.8
20260505004714 63 273 4.0 6.0 0.00 0.00 0.00 65 1013.0
20260505004210 63 289 5.0 8.0 0.00 0.00 0.00 64 1013.1
20260505003707 64 253 5.0 10.0 0.00 0.00 0.00 63 1012.9
20260505003205 64 163 4.0 8.0 0.00 0.00 0.00 62 1012.9
20260505002701 64 290 5.0 9.0 0.00 0.00 0.00 61 1012.9
20260505002159 64 339 4.0 8.0 0.00 0.00 0.00 62 1012.9
20260505001656 64 286 5.0 8.0 0.00 0.00 0.00 62 1013.1
20260505001153 65 31 4.0 7.0 0.00 0.00 0.00 60 1013.1
20260505000650 65 276 4.0 6.0 0.00 0.00 0.00 62 1013.2
20260505000148 65 254 7.0 9.0 0.00 0.00 0.00 61 1012.8
20260504235644 64 258 4.0 7.0 0.00 0.00 0.00 63 1013.1
20260504235141 64 272 4.0 8.0 0.00 0.00 0.00 65 1012.9
20260504234638 63 297 4.0 11.0 0.00 0.00 0.00 66 1013.1
20260504234130 64 280 10.0 11.0 0.00 0.00 0.00 65 1013.2
20260504233625 64 267 4.0 9.0 0.00 0.00 0.00 64 1013.1
20260504233121 64 315 6.0 8.0 0.00 0.00 0.00 65 1013.1
20260504232619 64 260 8.0 10.0 0.00 0.00 0.00 63 1013.0
20260504232116 65 296 5.0 6.0 0.00 0.00 0.00 63 1013.2
20260504231613 65 254 7.0 8.0 0.00 0.00 0.00 64 1013.1
20260504231109 65 293 4.0 8.0 0.00 0.00 0.00 65 1013.1
20260504230604 65 270 6.0 9.0 0.00 0.00 0.00 65 1013.1
20260504230058 65 275 5.0 7.0 0.00 0.00 0.00 63 1013.1
20260504225555 65 254 4.0 8.0 0.00 0.00 0.00 64 1013.2
20260504225052 64 263 5.0 8.0 0.00 0.00 0.00 65 1013.2
20260504224549 64 284 6.0 9.0 0.00 0.00 0.00 65 1013.6
20260504224046 64 268 5.0 7.0 0.00 0.00 0.00 66 1013.6
20260504223543 63 271 4.0 11.0 0.00 0.00 0.00 69 1013.6
20260504223038 63 285 1.0 3.0 0.00 0.00 0.00 68 1013.7
20260504222535 63 281 5.0 8.0 0.00 0.00 0.00 67 1013.7
20260504222033 63 275 3.0 6.0 0.00 0.00 0.00 68 1013.6
20260504221530 63 276 4.0 9.0 0.00 0.00 0.00 68 1013.8
20260504221027 63 274 6.0 7.0 0.00 0.00 0.00 67 1013.6
20260504220523 64 262 3.0 6.0 0.00 0.00 0.00 67 1013.7
20260504220020 63 245 6.0 8.0 0.00 0.00 0.00 68 1013.5
20260504215517 62 284 5.0 9.0 0.00 0.00 0.00 68 1013.8
20260504215014 62 260 3.0 8.0 0.00 0.00 0.00 70 1014.1
20260504214510 63 260 4.0 6.0 0.00 0.00 0.00 67 1013.8
20260504214006 63 281 6.0 8.0 0.00 0.00 0.00 67 1013.9
20260504213503 63 264 1.0 7.0 0.00 0.00 0.00 67 1014.1
20260504213001 62 343 4.0 7.0 0.00 0.00 0.00 68 1013.9
20260504212456 62 320 6.0 7.0 0.00 0.00 0.00 68 1014.3
20260504211954 62 268 3.0 7.0 0.00 0.00 0.00 68 1014.1
20260504211450 62 259 4.0 10.0 0.00 0.00 0.00 68 1014.1
20260504210948 63 283 3.0 6.0 0.00 0.00 0.00 68 1014.1
20260504210444 62 304 4.0 6.0 0.00 0.00 0.00 68 1014.2
20260504205941 63 335 4.0 5.0 0.00 0.00 0.00 68 1014.3
20260504205439 63 268 3.0 5.0 0.00 0.00 0.00 68 1014.2
20260504204937 62 278 1.0 5.0 0.00 0.00 0.00 67 1014.2
20260504204435 62 334 1.0 7.0 0.00 0.00 0.00 68 1014.4
20260504203934 62 208 5.0 7.0 0.00 0.00 0.00 66 1014.3
20260504203431 64 245 5.0 8.0 0.00 0.00 0.00 64 1014.2
20260504202927 63 300 2.0 3.0 0.00 0.00 0.00 66 1014.3
20260504202424 63 270 5.0 7.0 0.00 0.00 0.00 64 1014.3
20260504201920 63 255 3.0 6.0 0.00 0.00 0.00 66 1014.3
20260504201418 63 269 2.0 3.0 0.00 0.00 0.00 64 1014.2
20260504200915 62 207 3.0 7.0 0.00 0.00 0.00 66 1014.2
20260504200412 62 306 1.0 7.0 0.00 0.00 0.00 66 1014.5
20260504195908 62 243 3.0 3.0 0.00 0.00 0.00 67 1014.4
20260504195404 62 273 2.0 5.0 0.00 0.00 0.00 68 1014.1
20260504194901 62 256 3.0 5.0 0.00 0.00 0.00 66 1014.1
20260504194357 63 238 1.0 2.0 0.00 0.00 0.00 65 1014.3
20260504193853 63 276 3.0 6.0 0.00 0.00 0.00 66 1014.3
20260504193350 62 351 2.0 3.0 0.00 0.00 0.00 64 1014.4
20260504192849 62 278 3.0 5.0 0.00 0.00 0.00 67 1014.4
20260504192346 63 84 5.0 8.0 0.00 0.00 0.00 64 1014.5
20260504191844 63 281 2.0 3.0 0.00 0.00 0.00 62 1014.4
20260504191342 63 268 3.0 5.0 0.00 0.00 0.00 62 1014.3
20260504190837 63 258 5.0 7.0 0.00 0.00 0.00 62 1014.2
20260504190333 64 246 5.0 7.0 0.00 0.00 0.00 57 1014.3
20260504185830 65 270 3.0 6.0 0.00 0.00 0.00 55 1014.2
20260504185327 66 231 2.0 5.0 0.00 0.00 0.00 55 1014.2
20260504184823 66 210 6.0 7.0 0.00 0.00 0.00 53 1014.2
20260504184319 66 250 3.0 5.0 0.00 0.00 0.00 57 1014.2
20260504183815 67 277 3.0 6.0 0.00 0.00 0.00 57 1014.3
20260504183313 67 288 4.0 5.0 0.00 0.00 0.00 56 1014.3
20260504182810 67 260 5.0 6.0 0.00 0.00 0.00 55 1014.2
20260504182308 71 237 4.0 7.0 0.00 0.00 0.00 48 1014.4
20260504181805 72 270 7.0 8.0 0.00 0.00 0.00 46 1014.4
20260504181302 74 268 3.0 3.0 0.00 0.00 0.00 43 1014.1
20260504180801 72 219 3.0 5.0 0.00 0.00 0.00 44 1014.1
20260504180259 73 245 4.0 5.0 0.00 0.00 0.00 43 1014.4
20260504175757 72 274 3.0 5.0 0.00 0.00 0.00 44 1014.2
20260504175253 72 224 5.0 7.0 0.00 0.00 0.00 42 1014.5
20260504174751 72 229 3.0 5.0 0.00 0.00 0.00 44 1014.1
20260504174249 74 262 4.0 5.0 0.00 0.00 0.00 43 1014.0
20260504173745 73 229 3.0 3.0 0.00 0.00 0.00 44 1014.1
20260504173242 73 252 3.0 3.0 0.00 0.00 0.00 43 1014.3
20260504172739 75 266 3.0 5.0 0.00 0.00 0.00 42 1014.4
20260504172235 74 268 0.0 1.0 0.00 0.00 0.00 41 1014.5
20260504171731 73 266 1.0 2.0 0.00 0.00 0.00 43 1014.4
20260504171229 72 293 1.0 2.0 0.00 0.00 0.00 43 1014.8
20260504170726 72 248 2.0 2.0 0.00 0.00 0.00 42 1014.3
20260504170223 71 260 0.0 1.0 0.00 0.00 0.00 43 1014.3
20260504160141 69 273 1.0 2.0 0.00 0.00 0.00 48 1014.1
20260504151109 61 277 1.0 1.0 0.00 0.00 0.00 68 1013.7
20260504150606 61 276 0.0 1.0 0.00 0.00 0.00 70 1013.7
20260504150103 60 290 0.0 1.0 0.00 0.00 0.00 66 1013.7
20260504141032 52 321 1.0 2.0 0.00 0.00 0.00 78 1013.5
20260504140528 51 307 1.0 2.0 0.00 0.00 0.00 79 1013.5
20260504130453 49 287 0.0 1.0 0.00 0.00 0.00 83 1013.2
20260504110340 50 288 0.0 1.0 0.00 0.00 0.00 80 1012.8
20260504100257 51 310 1.0 2.0 0.00 0.00 0.00 77 1012.7
20260504081651 53 313 1.0 1.0 0.00 0.00 0.00 76 1012.5
20260504081147 53 293 1.0 2.0 0.00 0.00 0.00 76 1012.6
20260504080643 53 301 1.0 1.0 0.00 0.00 0.00 76 1012.6
20260504080140 53 304 1.0 2.0 0.00 0.00 0.00 76 1012.5
20260504070108 53 328 2.0 2.0 0.00 0.00 0.00 76 1013.0
20260504050456 57 279 0.0 1.0 0.00 0.00 0.00 70 1013.3
20260504045953 58 258 0.0 1.0 0.00 0.00 0.00 70 1013.0
20260504045449 58 289 0.0 1.0 0.00 0.00 0.00 68 1013.1
20260504044945 58 274 0.0 0.0 0.00 0.00 0.00 69 1013.0
20260504044443 59 269 0.0 1.0 0.00 0.00 0.00 69 1013.2
20260504043940 59 251 0.0 1.0 0.00 0.00 0.00 66 1013.2